Regional Weather Roundup
Issued by NWS Sioux Falls, SD

Home | Current Version | Previous Version | Text Only | Print | Product List | Glossary Off
Versions: 1 2 3 4 5 6 7 8 9 10 11 12 13 14 15 16 17 18 19 20 21 22 23 24 25 26 27 28 29 30 31 32 33 34 35 36 37 38 39 40 41 42 43 44 45 46 47 48 49 50

000
ASUS43 KFSD 222010
RWRFSD

WEATHER ROUNDUP FOR SE SOUTH DAKOTA/SW MINNESOTA/NW IOWA
NATIONAL WEATHER SERVICE SIOUX FALLS SD
300 PM CDT TUE JUL 22 2014

NOTE: "FAIR" INDICATES FEW OR NO CLOUDS BELOW 12,000 FEET WITH NO
SIGNIFICANT WEATHER AND OR OBSTRUCTIONS TO VISIBILITY.


SDZ038>040-050-052>070-222100-
SOUTHEAST SOUTH DAKOTA

CITY           SKY/WX    TMP DP  RH WIND       PRES   REMARKS
CHAMBERLAIN    SUNNY     83  59  43 NE8       30.19R
HURON          SUNNY     81  60  48 N13       30.16R
MADISON        FAIR      77  59  53 NE13      30.17R
MITCHELL       MOSUNNY   83  62  49 NE7G17    30.16R
SIOUX FALLS    MOSUNNY   81  63  54 NE12G20   30.14R
WINNER         FAIR      84  63  49 MISG      30.20R
YANKTON        CLOUDY    81  66  61 N10       30.13S
$$

MNZ071-072-080-081-089-090-097-098-222100-
SOUTHWEST MINNESOTA

CITY           SKY/WX    TMP DP  RH WIND       PRES   REMARKS
FAIRMONT       MOSUNNY   81  63  54 N12G17    30.08R
JACKSON        MOSUNNY   81  63  54 NW13G20   30.12R
LUVERNE        MOSUNNY   81  55  41 N9G16     30.14R
MARSHALL       MOSUNNY   79  57  47 N15G24    30.12R
MONTEVIDEO     MOSUNNY   81  59  47 N12G21    30.12R
PIPESTONE      MOSUNNY   79  57  47 N8        30.16R
REDWOOD FALLS  SUNNY     83  58  42 N10G22    30.08S
TRACY          SUNNY     79  59  50 N15       30.13R
WINDOM         SUNNY     81  61  50 NW15      30.11R
WORTHINGTON    SUNNY     79  63  57 N16       30.16R
$$

IAZ001>003-012>014-020>022-031-032-NEZ013-014-SDZ071-222100-
NORTHWEST IOWA

CITY           SKY/WX    TMP DP  RH WIND       PRES   REMARKS
CHEROKEE       PTSUNNY   82  68  62 N12G20    30.11R
DENISON        MOSUNNY   84  72  65 N8        30.05R
ESTHERVILLE    MOSUNNY   80  65  59 N13       30.09R
LE MARS        MOSUNNY   82  68  61 N9G15     30.14R
ORANGE CITY    MOSUNNY   82  64  54 N12       30.13R
SHELDON        MOSUNNY   81  66  61 N15       30.12R
SIOUX CITY     MOSUNNY   85  67  54 N12G18    30.12R
SPENCER        PTSUNNY   83  65  54 N9G18     30.11R
STORM LAKE     PTSUNNY   82  72  69 N13       30.11R
$$

ABBREVIATIONS USED IN REMARKS
   TC - TEMPERATURE IN CELSIUS
  WCI - WIND CHILL INDEX
   HX - HEAT INDEX
  VSB - VISIBILITY




USA.gov is the U.S. government's official web portal to all federal, state and local government web resources and services.